This demonstration page uses our WeatherBlox Daily Observations layout. Learn more.

Left ArrowRight Arrow

44.8408, -93.29828

Hourly Observations for April 29, 2019

Temp ( °F °C ) Dew Point ( °F °C ) Humidity (%) Winds ( mph kmh ) Pressure ( in mb ) Visibility ( mi km ) Precip ( " mm )
12:53 am 00:53 Cloudy 49 9.4 24 -4.4 38 38 SE 17 28 30.03 1017 10 16 0.00 0.00
1:53 am 01:53 Cloudy 48 8.9 26 -3.3 42 42 E 12 19 30.00 1016 10 16 0.00 0.00
2:53 am 02:53 Cloudy 48 8.9 27 -2.8 44 44 SE 16 26 29.96 1015 10 16 0.00 0.00
3:53 am 03:53 Cloudy 48 8.9 25 -3.9 41 41 SE 16 26 29.97 1015 10 16 0.00 0.00
4:53 am 04:53 Cloudy 47 8.3 25 -3.9 42 42 SE 12 19 29.95 1014 10 16 0.00 0.00
5:53 am 05:53 Cloudy 46 7.8 28 -2.2 50 50 SSE 9 15 29.95 1014 10 16 0.00 0.00
6:33 am 06:33 Cloudy 45 7.2 30 -1.1 56 56 SSE 9 15 29.96 1015 10 16 0.00 0.00
6:53 am 06:53 Cloudy 45 7.2 30 -1.1 56 56 SE 8 13 29.96 1015 10 16 0.00 0.00
7:53 am 07:53 Cloudy 44 6.7 33 0.6 65 65 ESE 13 20 29.98 1015 10 16 0.00 0.00
8:53 am 08:53 Cloudy 43 6.1 35 1.7 74 74 ESE 12 19 29.97 1015 10 16 0.00 0.00
9:53 am 09:53 Cloudy 44 6.7 36 2.2 73 73 SE 10 17 29.96 1014 10 16 0.00 0.00
10:37 am 10:37 Cloudy 45 7.2 37 2.8 74 74 SE 10 17 29.97 1015 10 16 0.00 0.00
10:51 am 10:51 Cloudy 45 7 37 3 76 76 SSE 8 13 29.98 1015 10 16 0.00 0.00
10:53 am 10:53 Cloudy 45 7.2 38 3.3 77 77 SSE 8 13 29.97 1015 10 16 0.00 0.00
11:02 am 11:02 Cloudy 45 7.2 38 3.3 77 77 S 7 11 29.98 1015 10 16 0.00 0.00
11:14 am 11:14 Cloudy 46 7.8 38 3.3 73 73 SE 8 13 29.98 1015 10 16 0.00 0.00
11:53 am 11:53 Cloudy 48 8.9 39 3.9 71 71 VRB 3 6 29.97 1015 10 16 0.00 0.00
12:53 pm 12:53 Cloudy 50 10 39 3.9 66 66 VRB 6 9 29.97 1015 10 16 0.00 0.00
1:53 pm 13:53 Mostly Cloudy 54 12.2 40 4.4 59 59 Calm 29.97 1015 10 16 0.00 0.00
2:53 pm 14:53 Cloudy 53 11.7 39 3.9 59 59 SE 6 9 29.98 1015 10 16 0.00 0.00
3:53 pm 15:53 Cloudy 55 12.8 39 3.9 55 55 NE 7 11 30.00 1016 10 16 0.00 0.00
4:53 pm 16:53 Mostly Cloudy 56 13.3 38 3.3 51 51 NNE 5 7 30.01 1016 10 16 0.00 0.00
5:53 pm 17:53 Mostly Cloudy 55 12.8 37 2.8 51 51 VRB 6 9 30.04 1017 10 16 0.00 0.00
6:53 pm 18:53 Mostly Cloudy 55 12.8 37 2.8 51 51 NW 7 11 30.06 1018 10 16 0.00 0.00
7:53 pm 19:53 Cloudy 53 11.7 36 2.2 52 52 N 7 11 30.08 1019 10 16 0.00 0.00
8:53 pm 20:53 Cloudy 52 11.1 37 2.8 57 57 NE 8 13 30.12 1020 10 16 0.00 0.00
9:53 pm 21:53 Cloudy 50 10 38 3.3 63 63 NNE 12 19 30.15 1021 10 16 0.00 0.00
10:53 pm 22:53 Cloudy 48 8.9 37 2.8 66 66 NNE 8 13 30.17 1022 10 16 0.00 0.00
11:53 pm 23:53 Partly Cloudy 46 7.8 36 2.2 68 68 NNE 8 13 30.19 1022 10 16 0.00 0.00

Powered by AerisWeather